STARLINK-32477, 62038

Orbit data source: Space-Track

STARLINK-32477, 62038 is a payload satellite owned by SpaceX/Seattle (US) in LEO that was launched on Thu, 21 Nov 2024 UTC via an FALCON 9 launch vehicle from the Air Force Eastern Test Range (AFETR). Payloads include a variety of satellites, spacecraft, and rockets equipped with specific instruments for various scientific and technological missions. These include communications satellites like Starlink; space stations such as the ISS; scientific satellites like the Hubble; Earth observation satellites from companies like Planet Labs, Umbra, and HawkEye 360; GPS; miniature CubeSats for education and research; and military/defense satellites.

Loading next visibility...
STARLINK-32477 details
Identifier
62038, 2024-216G
Orbit
LEO
Last TLE update19 hours ago
Origin
Flag of USSpaceX/Seattle (US)
ManufacturerSpaceX/Seattle
MissionOperational spacecraft
Bus & MotorSTARLINK V2M, Unknown motor
Mass730 kg wet, ~700 kg dry
Launch date (UTC)
2024-11-21 (3 weeks ago)
Launch vehicle
FALCON 9
Launch site
Air Force Eastern Test Range (AFETR)
Object type
Payload
Rocket body
Debris
Shape & HBRUnknown
Radar Cross SectionLarge (>1 m²)

Expand to show TLE details & history

TLE from 19 hours ago
0 STARLINK-32477
1 62038U 24216G   24348.16668981 -.01451863  00000-0 -27288-1 0  9998
2 62038  42.9995 309.3491 0001507 274.7760 123.9607 15.51013519  4489
Epoch: 2024-12-13T04:00Z
Definitive object data (Epoch: 2024-12-13T04:00:01.999Z)
Latitude25.36153°
Longitude-162.63183°
Altitude414.234 km
Speed7.666 km/s
True Right ascension22h 38m 51s
True Declination25° 13' 19"
Sunlit
Object was in daylight at TLE epoch
Visualization TLE readout
Latitude22.43278°
Longitude-171.3895°
Altitude420.914 km
Speed7.662 km/s
Apparent Right ascension00h 39m 46s
Apparent Declination-36° 44' 41"
Sunlit
Object is in daylight
Visualization observer readout
Local Sidereal Time21:04:21
Azimuth139.666° SSE
Elevation-1.225°
Doppler factor1
Orbital elements
Apogee altitude416.755 km
Perigee altitude414.707 km
Semi-major axis6,793.868 km
Eccentricity0.0001507
Inclination42.9995°
RAAN309.3491°
Arg. of periapsis274.776°
True anomaly123.97502°
Mean anomaly123.9607°
Eccentric anomaly123.96786°
Mean motion3.87586 °/min
BSTAR-0.027288
Orbital period92.88 mins
Loading maneuver chart data...
Loading historical data...
Loading historical data...
Loading historical data...
Loading historical data...
Loading historical data...
Loading historical data...
Loading historical data...

STARLINK-32477 Visibility forecast

Observer location: undefined°, undefined

Span
Click to sort rows by Start time (UTC) header in descending order
Start Az.
Max El. time (UTC)
Max El. Az.
Max El.
End time (UTC)
End Az.
4 mins2024-12-14 01:45:26.056Z242.969° WSW2024-12-14 01:47:26.056Z93.034° ESE42.162°2024-12-14 01:49:26.056Z74.158° E
4 mins2024-12-14 03:23:26.056Z299.079° NW2024-12-14 03:24:26.056Z336.471° NNW36.023°2024-12-14 03:27:26.056Z70.359° E
5 mins2024-12-14 05:00:26.056Z293.077° NW2024-12-14 05:02:26.056Z352.921° N43.145°2024-12-14 05:05:26.056Z98.569° ESE
4 mins2024-12-14 06:38:26.056Z255.777° W2024-12-14 06:40:26.056Z195.667° SSW25.423°2024-12-14 06:42:26.056Z153.734° SSE
|